Weather History for KOVS - September, 2013

Change the Weather History Date:

Wednesday, September 11, 2013

  Actual Average (KPDC) Record (KPDC)
Temperature  
Mean Temperature 75 °F -  
Max Temperature 84 °F 78 °F 94 °F (1978)
Min Temperature 64 °F 53 °F 35 °F (1955)
Cooling Degree Days 10    
Growing Degree Days 25 (Base 50)    
Moisture  
Dew Point 66 °F    
Average Humidity 82    
Maximum Humidity 96    
Minimum Humidity 55    
Precipitation  
Precipitation 0.44 in - - ()
Sea Level Pressure  
Sea Level Pressure 30.03 in    
Wind  
Wind Speed 3 mph (WSW)    
Max Wind Speed 20 mph    
Max Gust Speed 33 mph    
Visibility 8 miles    
Events Rain , Thunderstorm    
Averages and records for this station are not official NWS values.
T = Trace of Precipitation, MM = Missing Value Source: NWS Daily Summary

Daily Weather History Graph

Daily Weather History Graph

Search for Another Location

Airport or City:

Trip Planner

Search our weather history database for the weather conditions in past years. The results will help you decide how hot, cold, wet, or windy it might be!

Date:

Astronomy

Sep. 11, 2013 Rise Set
Actual Time 6:38 AM CDT 7:19 PM CDT
Civil Twilight 6:09 AM CDT 7:48 PM CDT
Nautical Twilight 5:35 AM CDT 8:22 PM CDT
Astronomical Twilight 5:00 AM CDT 8:57 PM CDT
Moon 1:16 PM CDT (9/11) 11:05 PM CDT (9/11)
Length of Visible Light 13h 38m
Length of Day
12h 41m
Waxing Crescent, 39% of the Moon is Illuminated
Sep 11
Waxing Crescent
Sep 12
First Quarter
Sep 19
Full
Sep 26
Last Quarter
Oct 4
New

Hourly Weather History & Observations

Time (CDT) Temp. Heat Index Dew Point Humidity Pressure Visibility Wind Dir Wind Speed Gust Speed Precip Events Conditions
12:30 AM 73.9 °F - 66.9 °F 79% 29.99 in 10.0 mi Calm Calm - N/A Thunderstorm Thunderstorm
12:45 AM 73.9 °F - 66.9 °F 79% 29.98 in 7.0 mi Calm Calm - 0.01 in Rain , Thunderstorm Light Rain
12:53 AM 72.0 °F - 68.0 °F 87% 29.98 in 6.0 mi Calm Calm - 0.02 in Rain , Thunderstorm Light Rain
1:15 AM 71.1 °F - 69.1 °F 93% 29.99 in 10.0 mi Calm Calm - 0.00 in   Mostly Cloudy
1:53 AM 70.0 °F - 66.9 °F 90% 29.98 in 10.0 mi Calm Calm - 0.00 in   Mostly Cloudy
2:53 AM 69.1 °F - 66.9 °F 93% 29.99 in 10.0 mi Calm Calm - N/A   Scattered Clouds
3:53 AM 69.1 °F - 66.9 °F 93% 29.99 in 10.0 mi Calm Calm - N/A   Mostly Cloudy
4:49 AM 69.8 °F - 66.2 °F 88% 30.11 in 4.0 mi SW 19.6 mph 33.4 mph 0.07 in Rain , Thunderstorm Heavy Rain
4:53 AM 69.1 °F - 64.9 °F 87% 30.10 in 1.5 mi WSW 18.4 mph 33.4 mph 0.18 in Rain , Thunderstorm Heavy Rain
5:07 AM 69.1 °F - 64.0 °F 84% 30.08 in 2.0 mi Variable 5.8 mph 16.1 mph 0.13 in Rain Heavy Rain
5:15 AM 68.0 °F - 64.9 °F 90% 30.07 in 5.0 mi North 3.5 mph - 0.14 in Rain Heavy Rain
5:53 AM 68.0 °F - 64.9 °F 90% 30.03 in 7.0 mi East 4.6 mph - 0.22 in Rain Heavy Rain
6:53 AM 66.9 °F - 64.0 °F 90% 30.04 in 10.0 mi SSW 3.5 mph - 0.02 in   Partly Cloudy
7:53 AM 68.0 °F - 66.0 °F 93% 30.04 in 10.0 mi Calm Calm - N/A   Clear
8:00 AM 68.0 °F - 66.0 °F 93% 30.05 in 10.0 mi Calm Calm - N/A   Partly Cloudy
8:53 AM 69.1 °F - 66.0 °F 90% 30.04 in 10.0 mi SW 5.8 mph - N/A   Partly Cloudy
9:53 AM 71.1 °F - 66.0 °F 84% 30.06 in 10.0 mi WSW 5.8 mph - N/A   Mostly Cloudy
10:53 AM 73.0 °F - 64.9 °F 76% 30.06 in 10.0 mi SW 8.1 mph - N/A   Overcast
11:53 AM 75.0 °F - 64.0 °F 69% 30.06 in 10.0 mi WSW 6.9 mph - N/A   Mostly Cloudy
12:53 PM 78.1 °F - 64.9 °F 64% 30.05 in 10.0 mi WSW 5.8 mph - N/A   Mostly Cloudy
1:53 PM 81.0 °F 83.0 °F 66.0 °F 60% 30.04 in 10.0 mi SW 8.1 mph - N/A   Clear
2:53 PM 82.0 °F 83.8 °F 64.9 °F 56% 30.02 in 10.0 mi Variable 5.8 mph - N/A   Clear
3:53 PM 84.0 °F 86.3 °F 66.0 °F 55% 30.02 in 10.0 mi WSW 8.1 mph - N/A   Partly Cloudy
4:53 PM 82.9 °F 85.0 °F 66.0 °F 56% 30.01 in 10.0 mi WSW 6.9 mph - N/A   Clear
5:53 PM 82.0 °F 84.1 °F 66.0 °F 58% 30.00 in 10.0 mi WSW 5.8 mph - N/A   Clear
6:53 PM 78.1 °F - 66.9 °F 68% 29.99 in 10.0 mi WSW 3.5 mph - N/A   Clear
7:53 PM 73.0 °F - 69.1 °F 87% 29.99 in 10.0 mi Calm Calm - N/A   Clear
8:53 PM 70.0 °F - 66.9 °F 90% 30.01 in 10.0 mi Calm Calm - N/A   Clear
9:53 PM 66.9 °F - 64.9 °F 93% 30.02 in 5.0 mi Calm Calm - N/A   Clear
10:12 PM 66.0 °F - 64.0 °F 93% 30.02 in 1.8 mi Calm Calm - N/A   Clear
10:21 PM 66.0 °F - 64.9 °F 96% 30.02 in 4.0 mi West 4.6 mph - N/A   Clear
10:53 PM 66.0 °F - 64.0 °F 93% 30.03 in 10.0 mi Calm Calm - N/A   Clear
11:53 PM 64.0 °F - 62.1 °F 93% 30.03 in 10.0 mi Calm Calm - N/A   Clear